TimeAKDT,TemperatureF,Dew PointF,Humidity,Sea Level PressureIn,VisibilityMPH,Wind Direction,Wind SpeedMPH,Gust SpeedMPH,PrecipitationIn,Events,Conditions,WindDirDegrees,DateUTC
12:53 AM,50.0,44.1,80,29.91,10.0,Calm,Calm,-,N/A,,Clear,0,2013-08-02 08:53:00
1:53 AM,46.9,42.1,83,29.91,10.0,Calm,Calm,-,N/A,,Clear,0,2013-08-02 09:53:00
2:53 AM,45.0,41.0,86,29.91,10.0,SSE,3.5,-,N/A,,Clear,160,2013-08-02 10:53:00
3:53 AM,43.0,39.9,89,29.91,10.0,Calm,Calm,-,N/A,,Clear,0,2013-08-02 11:53:00
4:53 AM,43.0,39.9,89,29.92,10.0,Calm,Calm,-,N/A,,Clear,0,2013-08-02 12:53:00
5:53 AM,44.1,39.9,85,29.92,10.0,Calm,Calm,-,N/A,,Clear,0,2013-08-02 13:53:00
6:53 AM,52.0,45.0,77,29.92,10.0,Calm,Calm,-,N/A,,Clear,0,2013-08-02 14:53:00
7:53 AM,59.0,46.0,62,29.91,10.0,Calm,Calm,-,N/A,,Clear,0,2013-08-02 15:53:00
8:53 AM,70.0,46.9,44,29.89,10.0,East,8.1,-,N/A,,Clear,100,2013-08-02 16:53:00
9:53 AM,73.9,48.0,40,29.88,10.0,ESE,9.2,19.6,N/A,,Clear,110,2013-08-02 17:53:00
10:53 AM,77.0,48.0,36,29.87,10.0,SE,9.2,20.7,N/A,,Clear,140,2013-08-02 18:53:00
11:53 AM,82.0,48.9,31,29.86,10.0,SE,8.1,-,N/A,,Clear,140,2013-08-02 19:53:00
12:53 PM,84.0,50.0,31,29.85,10.0,Variable,6.9,-,N/A,,Clear,0,2013-08-02 20:53:00
1:53 PM,86.0,48.0,27,29.83,10.0,Variable,5.8,17.3,N/A,,Clear,0,2013-08-02 21:53:00
2:53 PM,86.0,46.9,26,29.82,10.0,Variable,5.8,-,N/A,,Clear,0,2013-08-02 22:53:00
3:53 PM,88.0,46.0,23,29.80,10.0,SSE,9.2,-,N/A,,Clear,150,2013-08-02 23:53:00
4:53 PM,88.0,46.0,23,29.79,10.0,ESE,8.1,-,N/A,,Clear,110,2013-08-03 00:53:00
5:53 PM,86.0,44.1,23,29.78,10.0,SE,5.8,-,N/A,,Clear,140,2013-08-03 01:53:00
6:53 PM,84.9,44.1,24,29.76,10.0,ESE,4.6,-,N/A,,Clear,110,2013-08-03 02:53:00
7:53 PM,84.0,44.1,25,29.76,10.0,SSE,4.6,-,N/A,,Partly Cloudy,150,2013-08-03 03:53:00
8:53 PM,79.0,48.9,35,29.75,10.0,South,3.5,-,N/A,,Clear,180,2013-08-03 04:53:00
9:53 PM,72.0,52.0,49,29.76,10.0,Calm,Calm,-,N/A,,Partly Cloudy,0,2013-08-03 05:53:00
10:53 PM,64.9,48.9,56,29.77,10.0,Calm,Calm,-,N/A,,Scattered Clouds,0,2013-08-03 06:53:00
11:53 PM,59.0,46.9,64,29.77,10.0,Calm,Calm,-,N/A,,Clear,0,2013-08-03 07:53:00